STARLINK-4591 (53607 NORAD) Tracking and Keplerian Element Data

This shows tracking and keplerian element data for the satellite.

Feedback or suggestion? Click here.




ElementValue
Catalog53607
NameSTARLINK-4591
Epoch Orbit130
Epoch Day324.91667824
Epoch Year2022
RAAN247.6191
Inclination53.217
Eccentricity0.0001906
Argument of Perigee52.1566
Mean Anonmoly334.5452
Mean Motion15.08861131
Decay Rate-0.00018076
L11 53607U 22104V 22324.91667824 -.00018076 00000+0 -11198-2 0 9991
L22 53607 53.2170 247.6191 0001906 52.1566 334.5452 15.08861131 1306



Live tracking and technical data element details for STARLINK-4591 (NORAD 53607). STARLINK-4591 can be tracked NOW for your location showing map with azimuth and elevation plus other details from your city location.







IsCatalogInMostPopularTable: catalog: 53607, numindb: 1
Update: records affected: 1



GetName: 53607 STARLINK-4591

Hit Count: updated at: Thu, 08 Dec 2022 19:22:24 GMT